Regional Weather Roundup
Issued by NWS

Home | Current Version | Previous Version | Graphics & Text | Print | Product List | Glossary Off
Versions: 1 2 3 4 5 6 7 8 9 10 11 12 13 14 15 16 17 18 19 20 21 22 23 24 25 26 27 28 29 30 31 32 33 34 35 36 37 38 39 40 41 42 43 44 45 46 47 48 49 50

000
ASUS43 KMKX 152211
RWRWI

WISCONSIN REGIONAL WEATHER ROUNDUP
NATIONAL WEATHER SERVICE MILWAUKEE/SULLIVAN WI
400 PM CST FRI DEC 15 2017

NOTE: "FAIR" INDICATES FEW OR NO CLOUDS BELOW 12,000 FEET WITH NO
SIGNIFICANT WEATHER AND/OR OBSTRUCTIONS TO VISIBILITY.

WIZ001-002-006>008-014>016-023>028-152300-
NORTHWEST WISCONSIN

CITY           SKY/WX    TMP DP  RH WIND       PRES   REMARKS
SUPERIOR ARPT  CLOUDY    17   6  62 CALM      29.80S
ASHLAND        MOCLDY    13   5  70 SW3       29.81S
HAYWARD        CLOUDY    15   6  67 SW6       29.77S WCI   6
SIREN          CLOUDY    19  10  68 SW6       29.79S WCI  11
CUMBERLAND     CLOUDY    14   9  79 S3        29.78R
RICE LAKE      CLOUDY    17  10  74 CALM      29.81S
CHETEK         CLOUDY    18   9  68 CALM      29.80R
LADYSMITH      CLOUDY    16   8  69 CALM      29.80S
EAU CLAIRE     CLOUDY    21  14  74 CALM      29.80S
MENOMONIE      CLOUDY    24  17  74 CALM      29.81R
NEW RICHMOND   CLOUDY    23  15  70 CALM      29.79S
OSCEOLA        CLOUDY    22  14  71 CALM      29.82S
$$

WIZ003>005-009-010-017-018-152300-
NORTH CENTRAL WISCONSIN

CITY           SKY/WX    TMP DP  RH WIND       PRES   REMARKS
MANITOWISH WTR CLOUDY    11   5  75 W5        29.74R WCI   3
ARBOR VITAE    MOCLDY    13   7  75 W3        29.74R
WOODRUFF       MOCLDY    13   7  75 W3        29.74R
RHINELANDER    PTCLDY    10   3  73 W5        29.74S WCI   2
EAGLE RIVER    FLURRIES  13   5  70 NW5       29.73S WCI   5
LAND O LAKES   CLOUDY    13   5  70 W6        29.74S WCI   4
PHILLIPS       CLEAR     13   5  69 SW3       29.75S
TOMAHAWK       MOCLDY    12   5  75 CALM      29.76F
MEDFORD        MOCLDY    13   6  73 CALM      29.75F
MERRILL        CLEAR     13   6  74 W3        29.78S
$$

WIZ029-030-035-036-043>047-152300-
CENTRAL WISCONSIN

CITY           SKY/WX    TMP DP  RH WIND       PRES   REMARKS
WAUSAU         MOCLDY    14   6  70 W5        29.77S WCI   6
MOSINEE        MOCLDY    18   9  68 W6        29.79S WCI   9
MARSHFIELD     CLOUDY    19  12  74 NW6       29.77F WCI  11
STEVENS POINT  CLOUDY    18  10  72 W3        29.80F
WAUPACA        PTCLDY    22  11  63 NW5       29.82S WCI  16
WAUTOMA        CLOUDY    25  16  68 W3        29.82S
WISC RAPIDS    CLOUDY    23  13  65 N5        29.81F WCI  17
CAMP DOUGLAS   CLOUDY    29  22  74 CALM      29.80S
$$

WIZ011>013-019>022-031-037>040-048>050-152300-
NORTHEAST WISCONSIN

CITY           SKY/WX    TMP DP  RH WIND       PRES   REMARKS
ANTIGO         MOCLDY    12   5  73 W5        29.75S WCI   4
SHAWANO        CLEAR     20   8  61 W5        29.81R WCI  13
OCONTO         PTCLDY    17   7  63 W7        29.82R WCI   8
STURGEON BAY   MOCLDY    19  10  68 W13       29.81R WCI   6
GREEN BAY      CLEAR     17   6  62 W9        29.83R WCI   6
MANITOWOC      CLEAR     19   9  65 W8        29.84R WCI   9
APPLETON       MOCLDY    18   7  62 W7        29.80S WCI   8
CLINTONVILLE   CLEAR     18   7  62 W6        29.82R WCI   9
OSHKOSH        CLOUDY    22  12  65 NW5       29.82S WCI  16
$$

WIZ032>034-041-042-053>061-152300-
SOUTHWEST WISCONSIN

CITY           SKY/WX    TMP DP  RH WIND       PRES   REMARKS
LA CROSSE      CLOUDY    32  26  78 SW8       29.82S WCI  25
SPARTA         CLOUDY    30  25  80 W3        29.82S
VIROQUA        CLOUDY    29  28  95 CALM      29.79F
BOSCOBEL       CLOUDY    33  27  78 SW3       29.85S
PRAIRIE DU CHI CLOUDY    34  27  75 CALM      29.84S
PLATTEVILLE    CLOUDY    32  29  88 SW7       29.85S WCI  26
$$

WIZ056-057-062-063-064-067-068-152300-
SOUTH CENTRAL WISCONSIN

CITY           SKY/WX    TMP DP  RH WIND       PRES   REMARKS
REEDSBURG      CLOUDY    29  23  78 SW6       29.81F WCI  23
BARABOO/DELLS  CLOUDY    29  22  76 SW8       29.81S WCI  21
LONE ROCK      CLOUDY    31  27  85 W5        29.84S WCI  26
MINERAL POINT  CLOUDY    32  30  93 SW7       29.83S WCI  26
MADISON        MOCLDY    30  23  75 W7        29.83S WCI  23
MIDDLETON      CLOUDY    32  25  75 W8        29.83F WCI  25
WATERTOWN      CLOUDY    29  22  74 W3        29.83S
MONROE         FLURRIES  32  27  80 SW12      29.84S WCI  23
JANESVILLE     CLOUDY    32  25  74 W12G18    29.86R WCI  23
$$

WIZ051-052-058>065-066-070>072-152300-
SOUTHEAST WISCONSIN

CITY           SKY/WX    TMP DP  RH WIND       PRES   REMARKS
MILWAUKEE      MOCLDY    31  19  61 W6        29.85R WCI  25
WAUKESHA       CLOUDY    25  18  74 W7        29.84R WCI  17
MILWAUKEE/TIMM CLOUDY    28  18  64 SW8       29.85R WCI  20
RACINE         CLOUDY    31  21  66 W10       29.87R WCI  22
BURLINGTON     MOCLDY    30  25  79 SW12      29.86R WCI  21
KENOSHA        CLOUDY    31  22  69 W14       29.86R WCI  21
FOND DU LAC    CLOUDY    25  13  60 NW5       29.82S WCI  19
SHEBOYGAN      PTCLDY    20  11  68 W7        29.83R WCI  11
WEST BEND      PTCLDY    25  18  74 W6        29.83R WCI  18
JUNEAU         CLOUDY    24  16  73 CALM      29.84R
$$

LSZ147-162-152300-
LAKE SUPERIOR

STATION/POSITION TIME  TEMP    WIND        PRES    WAVE
                       AIR SEA DIR/SP/G            HT/PER
                 (UTC) (F)     (DEG/KT/KT) (MB)    (FT/S)
DEVILS ISLAND    2200   17     270/  5/  8 1010.5F
SAXON HARBOR     2140   16                 1009.5S
$$

LMZ867-665-643>646-152300-
LAKE MICHIGAN

STATION/POSITION TIME  TEMP    WIND        PRES    WAVE
                       AIR SEA DIR/SP/G            HT/PER
                 (UTC) (F)     (DEG/KT/KT) (MB)    (FT/S)
NORTHPORT PIER   2200   23     270/  2/ 11 1008.5
KEWAUNEE LAKESHO 2148   18     280/  6/  9 1009.2R
SHEBOYGAN LAKESH 2200   24     270/  6/  8 1011.3R
PORT WASHINGTON  2140   26     290/  6/  9 1011.5S
MILWAUKEE LAKESH 2150   30     240/ 10/ 12   N/A
KENOSHA   LAKESH 2200   31     240/  9/ 17 1011.9
$$

TC  - TEMPERATURE IN CELSIUS
VSB - VISIBILITY IN STATUTE MILES
WCI - WIND CHILL INDEX
HX  - HEAT INDEX





USA.gov is the U.S. government's official web portal to all federal, state and local government web resources and services.